Regional Weather Roundup
Issued by NWS

Home | Current Version | Previous Version | Graphics & Text | Print | Product List | Glossary On
Versions: 1 2 3 4 5 6 7 8 9 10 11 12 13 14 15 16 17 18 19 20 21 22 23 24 25 26 27 28 29 30 31 32 33 34 35 36 37 38 39 40 41 42 43 44 45 46 47 48 49 50
000
ASUS43 KDMX 202107
RWRIA

WEATHER ROUNDUP FOR IOWA
NATIONAL WEATHER SERVICE DES MOINES IA
300 PM CST SAT DEC 20 2014

NOTE: "FAIR" INDICATES FEW OR NO CLOUDS BELOW 12,000 FEET WITH NO
SIGNIFICANT WEATHER AND/OR OBSTRUCTIONS TO VISIBILITY.

* - THESE STATIONS ARE NOT NWS STATIONS...THUS NOT UNDER NWS
QUALITY CONTROL.  THEY ALSO DO NOT REPORT WEATHER SUCH
AS PRECIPITATION OR FOG.

IAZ001>003-012>014-020>022-031>034-043>046-202200-
   NORTHWEST IOWA

CITY           SKY/WX    TMP DP  RH WIND       PRES   REMARKS
CARROLL *      CLOUDY    34  32  93 S9        30.07F WCI  26
CHEROKEE *     CLOUDY    32  32 100 S7        30.05S FOG     WCI  26
DENISON *      CLOUDY    32  32 100 S7        30.05R FOG     WCI  26
LE MARS *      CLOUDY    32  30  93 SE6       30.04F WCI  26
ORANGE CITY *  CLOUDY    34  28  80 S7        30.03F FOG     WCI  28
SHELDON *      CLOUDY    32  32 100 S10       30.03S FOG     WCI  24
SIOUX CITY     CLOUDY    34  30  85 S9        30.05F WCI  27
SPENCER        CLOUDY    32  28  85 S12       30.05F WCI  23
STORM LAKE *   CLOUDY    32  30  93 S10       30.06S WCI  24
$$

IAZ055>058-069>071-079>083-090>094-202200-
   SOUTHWEST IOWA

CITY           SKY/WX    TMP DP  RH WIND       PRES   REMARKS
ATLANTIC *     CLOUDY    34  32  93 S7        30.08R WCI  28
AUDUBON *      SUNNY     34  28  80 SE6       30.08S HAZE    WCI  29
CLARINDA *     CLOUDY    34  34 100 S8        30.11R WCI  27
COUNCIL BLFS * CLOUDY    32  32 100 S8        30.05S FOG     WCI  25
CRESTON *      CLOUDY    34  34 100 S8        30.09R FOG     WCI  27
HARLAN  *      CLOUDY    34  34 100 SE8       30.10S WCI  27
LAMONI         CLOUDY    35  34  96 S7        30.11R FOG     WCI  29
RED OAK *      CLOUDY    34  34 100 S9        30.09R FOG     WCI  26
SHENANDOAH *   CLOUDY    36  34  93 S7        30.10R FOG     WCI  30
$$

IAZ047>049-059>061-072>074-084-202200-
   CENTRAL IOWA

CITY           SKY/WX    TMP DP  RH WIND       PRES   REMARKS
AMES           CLOUDY    33  31  92 SE8       30.12R FOG     WCI  26
ANKENY *       CLOUDY    34  34 100 S7        30.12R FOG     WCI  28
CHARITON *     CLOUDY    36  34  93 S9        30.12R FOG     WCI  29
DES MOINES     CLOUDY    36  33  89 S8        30.12R WCI  30
GRINNELL*      CLOUDY    34  32  93 SE5       30.14R FOG     WCI  30
KNOXVILLE *    CLOUDY    36  34  93 S5        30.12R FOG     WCI  32
MARSHALLTOWN   CLOUDY    33  29  85 SE7       30.12S WCI  27
PELLA *        CLOUDY    34  34 100 SE5       30.14S FOG     WCI  30
PERRY *        CLOUDY    34  34 100 SE6       30.10S FOG     WCI  29
$$

IAZ004>006-015-016-023>025-035-036-202200-
   NORTH CENTRAL IOWA

CITY           SKY/WX    TMP DP  RH WIND       PRES   REMARKS
ALGONA *       PTSUNNY   32  32 100 S12       30.09S FOG     WCI  23
CLARION *      CLOUDY    32  32 100 SE10      30.11R FOG     WCI  24
ESTHERVILLE    CLOUDY    31  28  89 S14       30.06S WCI  21
FORT DODGE *   CLOUDY    34  28  80 S6        30.10S WCI  29
MASON CITY     CLOUDY    30  27  88 CALM      30.12F
FOREST CITY *  CLOUDY    32  28  86 SE6       30.09S WCI  26
IOWA FALLS *   CLOUDY    32  30  93 SE6       30.12S WCI  26
$$

IAZ007>011-017>019-026>030-037>042-050>054-066-202200-
   NORTHEAST IOWA

CITY           SKY/WX    TMP DP  RH WIND       PRES   REMARKS
CEDAR RAPIDS   FOG       32  31  96 SE6       30.15S VSB 1   WCI  26
CHARLES CITY * CLOUDY    32  32 100 S7        30.13S FOG     WCI  26
CLINTON *      CLOUDY    34  25  69 SE10      30.23R WCI  26
DECORAH *      CLOUDY    30  30 100 SE6       30.13F FOG     WCI  24
DUBUQUE        CLOUDY    30  26  85 S10       30.18R FOG     WCI  21
MONTICELLO *   CLOUDY    32  32 100 SE7       30.17F FOG     WCI  26
OELWEIN *      CLOUDY    32  30  93 S10       30.15R FOG     WCI  24
WATERLOO       CLOUDY    32  31  96 S6        30.14F FOG     WCI  26
$$

IAZ064-065-067-068-078-202200-
   EAST CENTRAL IOWA

CITY           SKY/WX    TMP DP  RH WIND       PRES   REMARKS
DAVENPORT      CLOUDY    33  26  75 S7        30.20R WCI  27
IOWA CITY      CLOUDY    33  31  92 SE3       30.19S FOG
MT. PLEASANT * CLOUDY    34  34 100 SE6       30.18S FOG     WCI  29
MUSCATINE *    CLOUDY    36  30  80 SE7       30.20R HAZE    WCI  30
QUAD CITIES    CLOUDY    34  27  75 SE6       30.20S HAZE    WCI  29
$$

IAZ062-063-075>077-085>089-095>099-202200-
   SOUTHEAST IOWA

CITY           SKY/WX    TMP DP  RH WIND       PRES   REMARKS
BURLINGTON     CLOUDY    35  33  92 S3        30.18S FOG
FAIRFIELD *    CLOUDY    36  32  87 SE6       30.16S FOG     WCI  31
FORT MADISON * CLOUDY    36  36 100 SE5       30.19S FOG     WCI  32
KEOKUK *       CLOUDY    36  36 100 SE3       30.18R FOG
OSKALOOSA *    FOG       34  34 100 SE5       30.15R VSB 3/4 WCI  30
CENTERVILLE *  CLOUDY    36  36 100 S6        30.14S WCI  31
OTTUMWA        CLOUDY    35  33  92 SE5       30.14S FOG     WCI  31
WASHINGTON *   CLOUDY    34  34 100 SE9       30.17S FOG     WCI  26
$$

ABBREVIATIONS USED IN REMARKS
   TC - TEMPERATURES IN CELSIUS
  WCI - WIND CHILL INDEX
   HX - HEAT INDEX
  VSB - VISIBILITY
$$



USA.gov is the U.S. government's official web portal to all federal, state and local government web resources and services.